www.pogodaiklimat.ru
ПОГОДА на Базе ВВС Люк
Время
и дата
20:55 05.02
21:55 05.02
22:55 05.02
23:55 05.02
00:55 06.02
01:55 06.02
02:55 06.02
03:55 06.02
04:55 06.02
05:55 06.02
06:55 06.02
07:55 06.02
08:55 06.02
09:55 06.02
10:55 06.02
11:55 06.02
12:55 06.02
13:55 06.02
14:55 06.02
15:55 06.02
16:55 06.02
17:55 06.02
18:55 06.02
19:55 06.02
20:55 06.02
21:55 06.02
22:55 06.02
23:55 06.02
00:55 07.02
01:55 07.02
02:55 07.02
03:55 07.02
04:55 07.02
05:55 07.02
06:55 07.02
07:55 07.02
08:55 07.02
09:55 07.02
10:55 07.02
10:58 07.02
11:55 07.02
12:55 07.02
13:55 07.02
14:55 07.02
15:55 07.02
16:55 07.02
17:55 07.02
18:55 07.02
Ветер
(напр.,м/с)
Видим. Явления Облачность Т
(С)
Тd
(С)
f
(%)
Тe
(С)
Тes
(С)
Комфортность P
(гПа)
Po
(гПа)
Тmin
(С)
Tmax
(С)
R
(мм)
R24
(мм)
S
(см)
ЮЗ 2 16 км ясно +16.2 +2.2 39 +16 +16 1014.7 975.4
Ю 2 16 км ясно +13.1 +2.9 50 +13 +13 1014.7 975.4
ЮЗ 3 16 км ясно +13.5 +3.3 50 +13 +13 1014.5 975.4 +13.1 +21.4
Ю 5 16 км ясно +13.6 +3.6 51 +12 +12 1014.1 975.1
Ю 4 16 км ясно +13.4 +4.0 53 +12 +12 1013.8 974.8
ЮЗ 4 16 км ясно +11.7 +4.2 60 +10 +10 1013.7 974.8
штиль 0 16 км ясно +10.2 +3.5 63 +10 +10 1013.8 974.8
З 3 16 км ясно +11.7 -2.9 36 +11 +11 1014.1 975.1
З 3 16 км ясно +11.2 -3.7 35 +10 +10 1013.8 974.8 +10.2 +14.0
З 4 16 км ясно +9.5 -3.1 41 +7 +7 1013.9 974.8
Ю 3 16 км ясно +9.7 -3.9 38 +8 +8 1014.6 975.4
Ю 3 16 км ясно +7.2 -0.5 58 +5 +5 1015.4 976.1
Ю 4 16 км ясно +9.4 -0.8 49 +7 +7 1016.0 976.8
Ю 5 16 км ясно +11.6 +0.1 45 +9 +11 1016.4 977.1
Ю 4 16 км ясно +14.4 -1.7 33 +13 +17 1016.3 977.1 +6.8 +14.4
Ю 5 16 км ясно +16.5 -2.1 28 +16 +20 1015.9 976.8
Ю 4 16 км ясно +17.8 -1.5 27 +18 +24 1014.5 975.4
Ю 4 16 км 2/0 3000 m
[Ac]
+19.1 -2.0 24 +19 +24 1013.5 974.5
СЗ 8
{12}
16 км 2/0 3300 m
[Ac]
+20.8 -8.7 13 +20 +21 1013.1 974.1
СЗ 7
{11}
16 км ясно +20.5 -9.9 12 +19 +21 1013.4 974.5
СЗ 7 16 км ясно +19.9 -9.4 13 +19 +20 1013.8 974.8 +14.3 +20.8
З 7 16 км ясно +18.3 -5.7 19 +18 +18 1014.6 975.4
СЗ 6 16 км ясно +16.3 -6.1 21 +15 +15 1015.4 976.1
СЗ 4 16 км ясно +13.3 -7.4 23 +12 +12 1016.6 977.1
С 3 16 км ясно +13.0 -7.7 23 +12 +12 1017.2 977.7
СЗ 5 16 км ясно +11.8 -7.1 26 +10 +10 1017.8 978.4
С 5 16 км ясно +11.6 -6.3 28 +10 +10 1018.4 979.0 +11.4 +19.8
С 4 16 км ясно +10.1 -4.3 36 +8 +8 1019.1 979.7
С 5 16 км ясно +8.4 -4.1 41 +5 +5 1019.1 979.7
С 4 16 км ясно +8.3 -4.2 41 +6 +6 1019.5 980.0
С 5 16 км ясно +7.8 -3.1 46 +5 +5 1020.1 980.7
СЗ 6 16 км ясно +8.0 -3.8 43 +5 +5 1020.4 981.0
С 6 16 км ясно +6.4 -3.5 49 +2 +2 1020.8 981.3 +6.3 +11.5
С 5 16 км ясно +5.5 -3.3 53 +2 +2 1021.6 982.0
С 4 16 км ясно +5.5 -3.8 51 +2 +2 1022.3 982.6
СЗ 4 16 км ясно +7.5 -4.0 44 +5 +5 1023.0 983.3
С 4 16 км ясно +10.5 -4.0 36 +9 +9 1023.6 983.9
С 5 16 км ясно +14.0 -5.7 25 +13 +14 1023.2 983.6
С 7
{9}
16 км ясно +16.2 -6.8 20 +15 +16 1023.5 983.9 +5.2 +16.2
СВ 8 16 км ясно +16.0 -7.0 20 +15 +16 1023.5 983.9
С 6 16 км ясно +17.1 -7.4 18 +16 +19 1022.8 983.3
С 5 16 км ясно +18.5 -7.8 16 +18 +23 1022.1 982.6
штиль 0 16 км ясно +18.7 -7.7 16 +19 +31 опасность
простуды
1021.4 982.0
З 2 16 км ясно +19.1 -8.2 15 +19 +27 1020.8 981.3
ЮЗ 2 16 км ясно +19.2 -9.0 14 +20 +25 1020.4 981.0
ЮЗ 3 16 км ясно +19.6 -8.7 14 +19 +22 1020.5 981.0 +16.2 +19.6
ЮЗ 4 16 км ясно +17.9 -6.1 19 +18 +18 1020.5 981.0
З 4 16 км ясно +15.4 -6.2 22 +15 +15 1021.0 981.3
Местоположение метеостанции Luke Air Force Base: широта 33.5333 долгота -112.3833 высота над уровнем моря 332 м.
В архиве по умолчанию представлена погода на Базе ВВС Люк за последние 1-2 суток. Обновление информации о фактической погоде в базе происходит ежечасно! Архивные данные за месяц целиком и за предыдущие месяцы Вы можете получить, выбрав интересующий диапазон дат из раскрывающегося списка и нажав кнопку "Ввод!".
Внимание! Архив погоды МЕТАР в базе сайта по станциям, не включенным в климатический монитор, хранится не более 60 дней. Нет смысла пытаться выбрать более раннюю дату.
*Определитесь, кто Вы:
Внимание! Время в таблицах - местное (без учета летнего времени). Для получения всемирного времени необходимо вычесть поправку, которая равна -7 ч.
Смотрите также архив погоды в соседних городах и на ближайших метеорологических станциях:
Партнеры нашего сайта:      
Пояснения к столбцам:
  • Ветер - указаны скорость ветра в м/с - средняя за 10 мин, порывы в срок и между сроками (в фигурных скобках) и направление, откуда дует ветер: С - северный,
  • СВ - северо-восточный, В - восточный, ЮВ - юго-восточный, Ю - южный, ЮЗ - юго-западный, З - западный, СЗ - северо-западный.
  • Видимость - горизонтальная дальность видимости в метрах или километрах. При видимости от 1 до 10 км при отсутствии осадков обычно наблюдается дымка, при ухудшении видимости до 1 км и менее - туман. В сухую погоду видимость может ухудшаться дымом, пылью или мглою.
  • Явления - указаны атмосферные явления, наблюдавшиеся в срок или в последний час перед сроком; фигурными скобками обозначены явления, наблюдавшиеся между сроками (за 1-3 часа до срока); квадратными скобками обозначены град или гололедные отложения с указанием их диаметра в мм.
  • Облачность - указаны через наклонную черту общая и нижняя облачность в баллах и высота нижней границы облаков в метрах; квадратными скобками обозначены формы облаков: Ci - перистые, Cs - перисто-слоистые, Cc - перисто-кучевые, Ac - высококучевые, As - высокослоистые, Sc - слоисто-кучевые, Ns - слоисто-дождевые, Cu - кучевые, Cb - кучево-дождевые. Подробнее классификацию облаков см. в Атласе облаков (PDF).
  • T - Температура воздуха - температура, измеренная на высоте 2 м над землей.
  • Td - Температура точки росы - температура, при понижении до которой содержащийся в воздухе водяной пар достигнет насыщения.
  • f - Относительная влажность воздуха - влажноcть воздуха, измеренная на высоте 2 м над землей.
  • Te - Эффективная температура - температура, которую ощущает одетый по сезону человек в тени. Характеристика душности погоды. При расчете учитывается влияние влажности воздуха и скорости ветра на теплоощущения человека.
  • Tes - Эффективная температура на солнце - температура, которую ощущает человек, с поправкой на солнечный нагрев. Характеристика знойности погоды. Зависит от высоты солнца над горизонтом, облачности и скорости ветра. Ночью, в пасмурную погоду, а также при ветре 12 м/с и более поправка равна нулю.
  • P - Атмосферное давление - приведенное к уровню моря атмосферное давление.
  • Po - Атмосферное давление - измеренное на уровне метеостанции атмосферное давление.
  • Tmin - Минимальная температура - минимум температуры воздуха на высоте 2 м над землей.
  • Tmax - Максимальная температура - максимум температуры воздуха на высоте 2 м над землей.
  • R - Количество осадков - Количество выпавших осадков за период времени, мм. При наведении курсора мыши на число - период времени, за который выпало указанное количество осадков.
  • R24 - Количество осадков - Количество выпавших осадков за 24 часа, мм.
  • S - Снежный покров - Высота снежного покрова, см. При наведении курсора мыши на число - состояние снежного покрова и степень покрытия местности в баллах.